Year,Month,Day,Hour,Minute,Value (Times are PST for insolation in W/m^2)
2007,08,13,00,00,0.00
2007,08,13,00,01,0.00
2007,08,13,00,02,0.00
2007,08,13,00,03,0.00
2007,08,13,00,04,0.00
2007,08,13,00,05,0.00
2007,08,13,00,06,0.00
2007,08,13,00,07,0.00
2007,08,13,00,08,0.00
2007,08,13,00,09,0.00
2007,08,13,00,10,0.00
2007,08,13,00,11,0.00
2007,08,13,00,12,0.00
2007,08,13,00,13,0.00
2007,08,13,00,14,0.00
2007,08,13,00,15,0.00
2007,08,13,00,16,0.00
2007,08,13,00,17,0.00
2007,08,13,00,18,0.00
2007,08,13,00,19,0.00
2007,08,13,00,20,0.00
2007,08,13,00,21,0.00
2007,08,13,00,22,0.00
2007,08,13,00,23,0.00
2007,08,13,00,24,0.00
2007,08,13,00,25,0.00
2007,08,13,00,26,0.00
2007,08,13,00,27,0.00
2007,08,13,00,28,0.00
2007,08,13,00,29,0.00
2007,08,13,00,30,0.00
2007,08,13,00,31,0.00
2007,08,13,00,32,0.00
2007,08,13,00,33,0.00
2007,08,13,00,34,0.00
2007,08,13,00,35,0.00
2007,08,13,00,36,0.00
2007,08,13,00,37,0.00
2007,08,13,00,38,0.00
2007,08,13,00,39,0.00
2007,08,13,00,40,0.00
2007,08,13,00,41,0.00
2007,08,13,00,42,0.00
2007,08,13,00,43,0.00
2007,08,13,00,44,0.00
2007,08,13,00,45,0.00
2007,08,13,00,46,0.00
2007,08,13,00,47,0.00
2007,08,13,00,48,0.00
2007,08,13,00,49,0.00
2007,08,13,00,50,0.00
2007,08,13,00,51,0.00
2007,08,13,00,52,0.00
2007,08,13,00,53,0.00
2007,08,13,00,54,0.00
2007,08,13,00,55,0.00
2007,08,13,00,56,0.00
2007,08,13,00,57,0.00
2007,08,13,00,58,0.00
2007,08,13,00,59,0.00
2007,08,13,01,00,0.00
2007,08,13,01,01,0.00
2007,08,13,01,02,0.00
2007,08,13,01,03,0.00
2007,08,13,01,04,0.00
2007,08,13,01,05,0.00
2007,08,13,01,06,0.00
2007,08,13,01,07,0.00
2007,08,13,01,08,0.00
2007,08,13,01,09,0.00
2007,08,13,01,10,0.00
2007,08,13,01,11,0.00
2007,08,13,01,12,0.00
2007,08,13,01,13,0.00
2007,08,13,01,14,0.00
2007,08,13,01,15,0.00
2007,08,13,01,16,0.00
2007,08,13,01,17,0.00
2007,08,13,01,18,0.00
2007,08,13,01,19,0.00
2007,08,13,01,20,0.00
2007,08,13,01,21,0.00
2007,08,13,01,22,0.00
2007,08,13,01,23,0.00
2007,08,13,01,24,0.00
2007,08,13,01,25,0.00
2007,08,13,01,26,0.00
2007,08,13,01,27,0.00
2007,08,13,01,28,0.00
2007,08,13,01,29,0.00
2007,08,13,01,30,0.00
2007,08,13,01,31,0.00
2007,08,13,01,32,0.00
2007,08,13,01,33,0.00
2007,08,13,01,34,0.00
2007,08,13,01,35,0.00
2007,08,13,01,36,0.00
2007,08,13,01,37,0.00
2007,08,13,01,38,0.00
2007,08,13,01,39,0.00
2007,08,13,01,40,0.00
2007,08,13,01,41,0.00
2007,08,13,01,42,0.00
2007,08,13,01,43,0.00
2007,08,13,01,44,0.00
2007,08,13,01,45,0.00
2007,08,13,01,46,0.00
2007,08,13,01,47,0.00
2007,08,13,01,48,0.00
2007,08,13,01,49,0.00
2007,08,13,01,50,0.00
2007,08,13,01,51,0.00
2007,08,13,01,52,0.00
2007,08,13,01,53,0.00
2007,08,13,01,54,0.00
2007,08,13,01,55,0.00
2007,08,13,01,56,0.00
2007,08,13,01,57,0.00
2007,08,13,01,58,0.00
2007,08,13,01,59,0.00
2007,08,13,02,00,0.00
2007,08,13,02,01,0.00
2007,08,13,02,02,0.00
2007,08,13,02,03,0.00
2007,08,13,02,04,0.00
2007,08,13,02,05,0.00
2007,08,13,02,06,0.00
2007,08,13,02,07,0.00
2007,08,13,02,08,0.00
2007,08,13,02,09,0.00
2007,08,13,02,10,0.00
2007,08,13,02,11,0.00
2007,08,13,02,12,0.00
2007,08,13,02,13,0.00
2007,08,13,02,14,0.00
2007,08,13,02,15,0.00
2007,08,13,02,16,0.00
2007,08,13,02,17,0.00
2007,08,13,02,18,0.00
2007,08,13,02,19,0.00
2007,08,13,02,20,0.00
2007,08,13,02,21,0.00
2007,08,13,02,22,0.00
2007,08,13,02,23,0.00
2007,08,13,02,24,0.00
2007,08,13,02,25,0.00
2007,08,13,02,26,0.00
2007,08,13,02,27,0.00
2007,08,13,02,28,0.00
2007,08,13,02,29,0.00
2007,08,13,02,30,0.00
2007,08,13,02,31,0.00
2007,08,13,02,32,0.00
2007,08,13,02,33,0.00
2007,08,13,02,34,0.00
2007,08,13,02,35,0.00
2007,08,13,02,36,0.00
2007,08,13,02,37,0.00
2007,08,13,02,38,0.00
2007,08,13,02,39,0.00
2007,08,13,02,40,0.00
2007,08,13,02,41,0.00
2007,08,13,02,42,0.00
2007,08,13,02,43,0.00
2007,08,13,02,44,0.00
2007,08,13,02,45,0.00
2007,08,13,02,46,0.00
2007,08,13,02,47,0.00
2007,08,13,02,48,0.00
2007,08,13,02,49,0.00
2007,08,13,02,50,0.00
2007,08,13,02,51,0.00
2007,08,13,02,52,0.00
2007,08,13,02,53,0.00
2007,08,13,02,54,0.00
2007,08,13,02,55,0.00
2007,08,13,02,56,0.00
2007,08,13,02,57,0.00
2007,08,13,02,58,0.00
2007,08,13,02,59,0.00
2007,08,13,03,00,0.00
2007,08,13,03,01,0.00
2007,08,13,03,02,0.00
2007,08,13,03,03,0.00
2007,08,13,03,04,0.00
2007,08,13,03,05,0.00
2007,08,13,03,06,0.00
2007,08,13,03,07,0.00
2007,08,13,03,08,0.00
2007,08,13,03,09,0.00
2007,08,13,03,10,0.00
2007,08,13,03,11,0.00
2007,08,13,03,12,0.00
2007,08,13,03,13,0.00
2007,08,13,03,14,0.00
2007,08,13,03,15,0.00
2007,08,13,03,16,0.00
2007,08,13,03,17,0.00
2007,08,13,03,18,0.00
2007,08,13,03,19,0.00
2007,08,13,03,20,0.00
2007,08,13,03,21,0.00
2007,08,13,03,22,0.00
2007,08,13,03,23,0.00
2007,08,13,03,24,0.00
2007,08,13,03,25,0.00
2007,08,13,03,26,0.00
2007,08,13,03,27,0.00
2007,08,13,03,28,0.00
2007,08,13,03,29,0.00
2007,08,13,03,30,0.00
2007,08,13,03,31,0.00
2007,08,13,03,32,0.00
2007,08,13,03,33,0.00
2007,08,13,03,34,0.00
2007,08,13,03,35,0.00
2007,08,13,03,36,0.00
2007,08,13,03,37,0.00
2007,08,13,03,38,0.00
2007,08,13,03,39,0.00
2007,08,13,03,40,0.00
2007,08,13,03,41,0.00
2007,08,13,03,42,0.00
2007,08,13,03,43,0.00
2007,08,13,03,44,0.00
2007,08,13,03,45,0.00
2007,08,13,03,46,0.00
2007,08,13,03,47,0.00
2007,08,13,03,48,0.00
2007,08,13,03,49,0.00
2007,08,13,03,50,0.00
2007,08,13,03,51,0.00
2007,08,13,03,52,0.00
2007,08,13,03,53,0.00
2007,08,13,03,54,0.00
2007,08,13,03,55,0.00
2007,08,13,03,56,0.00
2007,08,13,03,57,0.00
2007,08,13,03,58,0.00
2007,08,13,03,59,0.00
2007,08,13,04,00,0.00
2007,08,13,04,01,0.00
2007,08,13,04,02,0.00
2007,08,13,04,03,0.00
2007,08,13,04,04,0.00
2007,08,13,04,05,0.00
2007,08,13,04,06,0.00
2007,08,13,04,07,0.00
2007,08,13,04,08,0.00
2007,08,13,04,09,0.00
2007,08,13,04,10,0.00
2007,08,13,04,11,0.00
2007,08,13,04,12,0.00
2007,08,13,04,13,0.00
2007,08,13,04,14,0.00
2007,08,13,04,15,0.00
2007,08,13,04,16,0.00
2007,08,13,04,17,0.00
2007,08,13,04,18,0.00
2007,08,13,04,19,0.00
2007,08,13,04,20,0.00
2007,08,13,04,21,0.00
2007,08,13,04,22,0.00
2007,08,13,04,23,0.00
2007,08,13,04,24,0.00
2007,08,13,04,25,0.00
2007,08,13,04,26,0.00
2007,08,13,04,27,0.00
2007,08,13,04,28,0.00
2007,08,13,04,29,0.00
2007,08,13,04,30,0.00
2007,08,13,04,31,0.00
2007,08,13,04,32,0.00
2007,08,13,04,33,0.00
2007,08,13,04,34,0.00
2007,08,13,04,35,0.00
2007,08,13,04,36,0.00
2007,08,13,04,37,0.00
2007,08,13,04,38,0.00
2007,08,13,04,39,0.00
2007,08,13,04,40,0.00
2007,08,13,04,41,0.00
2007,08,13,04,42,0.00
2007,08,13,04,43,0.00
2007,08,13,04,44,0.00
2007,08,13,04,45,0.00
2007,08,13,04,46,0.00
2007,08,13,04,47,0.00
2007,08,13,04,48,0.00
2007,08,13,04,49,0.00
2007,08,13,04,50,0.00
2007,08,13,04,51,0.00
2007,08,13,04,52,0.00
2007,08,13,04,53,0.00
2007,08,13,04,54,0.00
2007,08,13,04,55,0.00
2007,08,13,04,56,0.00
2007,08,13,04,57,0.00
2007,08,13,04,58,0.00
2007,08,13,04,59,0.00
2007,08,13,05,00,0.00
2007,08,13,05,01,0.00
2007,08,13,05,02,0.00
2007,08,13,05,03,0.00
2007,08,13,05,04,0.00
2007,08,13,05,05,0.00
2007,08,13,05,06,0.00
2007,08,13,05,07,0.00
2007,08,13,05,08,0.00
2007,08,13,05,09,0.00
2007,08,13,05,10,0.00
2007,08,13,05,11,0.00
2007,08,13,05,12,0.00
2007,08,13,05,13,0.00
2007,08,13,05,14,0.00
2007,08,13,05,15,0.00
2007,08,13,05,16,0.00
2007,08,13,05,17,0.00
2007,08,13,05,18,0.00
2007,08,13,05,19,0.00
2007,08,13,05,20,0.00
2007,08,13,05,21,0.00
2007,08,13,05,22,0.00
2007,08,13,05,23,0.00
2007,08,13,05,24,0.00
2007,08,13,05,25,0.00
2007,08,13,05,26,0.00
2007,08,13,05,27,0.00
2007,08,13,05,28,0.00
2007,08,13,05,29,0.00
2007,08,13,05,30,0.00
2007,08,13,05,31,0.00
2007,08,13,05,32,0.00
2007,08,13,05,33,0.00
2007,08,13,05,34,0.00
2007,08,13,05,35,0.00
2007,08,13,05,36,0.00
2007,08,13,05,37,0.00
2007,08,13,05,38,0.00
2007,08,13,05,39,0.00
2007,08,13,05,40,0.00
2007,08,13,05,41,0.00
2007,08,13,05,42,0.00
2007,08,13,05,43,0.00
2007,08,13,05,44,0.00
2007,08,13,05,45,0.00
2007,08,13,05,46,0.00
2007,08,13,05,47,0.00
2007,08,13,05,48,0.00
2007,08,13,05,49,0.00
2007,08,13,05,50,0.00
2007,08,13,05,51,0.00
2007,08,13,05,52,0.00
2007,08,13,05,53,0.00
2007,08,13,05,54,0.00
2007,08,13,05,55,0.00
2007,08,13,05,56,0.00
2007,08,13,05,57,0.00
2007,08,13,05,58,0.00
2007,08,13,05,59,0.00
2007,08,13,06,00,0.00
2007,08,13,06,01,0.00
2007,08,13,06,02,0.00
2007,08,13,06,03,0.00
2007,08,13,06,04,0.00
2007,08,13,06,05,0.00
2007,08,13,06,06,0.00
2007,08,13,06,07,0.00
2007,08,13,06,08,0.00
2007,08,13,06,09,0.00
2007,08,13,06,10,5.00
2007,08,13,06,11,5.00
2007,08,13,06,12,5.00
2007,08,13,06,13,5.00
2007,08,13,06,14,5.50
2007,08,13,06,15,7.00
2007,08,13,06,16,7.00
2007,08,13,06,17,8.20
2007,08,13,06,18,9.00
2007,08,13,06,19,10.70
2007,08,13,06,20,11.00
2007,08,13,06,21,12.00
2007,08,13,06,22,12.00
2007,08,13,06,23,14.00
2007,08,13,06,24,16.60
2007,08,13,06,25,19.70
2007,08,13,06,26,21.80
2007,08,13,06,27,24.60
2007,08,13,06,28,27.20
2007,08,13,06,29,29.50
2007,08,13,06,30,31.60
2007,08,13,06,31,32.00
2007,08,13,06,32,32.00
2007,08,13,06,33,32.00
2007,08,13,06,34,32.10
2007,08,13,06,35,33.40
2007,08,13,06,36,35.60
2007,08,13,06,37,37.80
2007,08,13,06,38,39.50
2007,08,13,06,39,40.00
2007,08,13,06,40,41.50
2007,08,13,06,41,43.70
2007,08,13,06,42,45.90
2007,08,13,06,43,46.00
2007,08,13,06,44,47.00
2007,08,13,06,45,49.00
2007,08,13,06,46,49.00
2007,08,13,06,47,49.50
2007,08,13,06,48,50.20
2007,08,13,06,49,50.10
2007,08,13,06,50,56.40
2007,08,13,06,51,72.50
2007,08,13,06,52,89.10
2007,08,13,06,53,92.90
2007,08,13,06,54,93.00
2007,08,13,06,55,90.00
2007,08,13,06,56,91.50
2007,08,13,06,57,98.40
2007,08,13,06,58,100.70
2007,08,13,06,59,103.20
2007,08,13,07,00,107.10
2007,08,13,07,01,110.20
2007,08,13,07,02,113.20
2007,08,13,07,03,115.60
2007,08,13,07,04,116.00
2007,08,13,07,05,113.00
2007,08,13,07,06,111.00
2007,08,13,07,07,90.60
2007,08,13,07,08,79.70
2007,08,13,07,09,71.50
2007,08,13,07,10,70.80
2007,08,13,07,11,72.80
2007,08,13,07,12,75.20
2007,08,13,07,13,76.00
2007,08,13,07,14,76.00
2007,08,13,07,15,74.10
2007,08,13,07,16,74.00
2007,08,13,07,17,74.00
2007,08,13,07,18,72.00
2007,08,13,07,19,72.00
2007,08,13,07,20,72.00
2007,08,13,07,21,73.60
2007,08,13,07,22,76.50
2007,08,13,07,23,78.80
2007,08,13,07,24,82.10
2007,08,13,07,25,83.00
2007,08,13,07,26,81.10
2007,08,13,07,27,81.00
2007,08,13,07,28,79.00
2007,08,13,07,29,76.90
2007,08,13,07,30,76.00
2007,08,13,07,31,75.50
2007,08,13,07,32,73.40
2007,08,13,07,33,71.10
2007,08,13,07,34,69.40
2007,08,13,07,35,67.50
2007,08,13,07,36,65.30
2007,08,13,07,37,65.00
2007,08,13,07,38,63.40
2007,08,13,07,39,65.00
2007,08,13,07,40,65.30
2007,08,13,07,41,70.00
2007,08,13,07,42,75.90
2007,08,13,07,43,81.00
2007,08,13,07,44,88.90
2007,08,13,07,45,103.40
2007,08,13,07,46,115.10
2007,08,13,07,47,127.60
2007,08,13,07,48,138.40
2007,08,13,07,49,144.00
2007,08,13,07,50,144.00
2007,08,13,07,51,138.40
2007,08,13,07,52,129.10
2007,08,13,07,53,120.80
2007,08,13,07,54,112.80
2007,08,13,07,55,106.80
2007,08,13,07,56,98.70
2007,08,13,07,57,95.50
2007,08,13,07,58,95.00
2007,08,13,07,59,96.90
2007,08,13,08,00,98.00
2007,08,13,08,01,102.00
2007,08,13,08,02,109.50
2007,08,13,08,03,117.70
2007,08,13,08,04,128.20
2007,08,13,08,05,142.40
2007,08,13,08,06,154.20
2007,08,13,08,07,148.80
2007,08,13,08,08,144.50
2007,08,13,08,09,142.40
2007,08,13,08,10,142.00
2007,08,13,08,11,146.00
2007,08,13,08,12,149.00
2007,08,13,08,13,155.90
2007,08,13,08,14,163.00
2007,08,13,08,15,167.50
2007,08,13,08,16,169.00
2007,08,13,08,17,169.00
2007,08,13,08,18,169.00
2007,08,13,08,19,170.50
2007,08,13,08,20,171.00
2007,08,13,08,21,169.10
2007,08,13,08,22,167.00
2007,08,13,08,23,163.60
2007,08,13,08,24,159.90
2007,08,13,08,25,154.00
2007,08,13,08,26,146.00
2007,08,13,08,27,147.20
2007,08,13,08,28,152.70
2007,08,13,08,29,158.40
2007,08,13,08,30,160.00
2007,08,13,08,31,158.40
2007,08,13,08,32,155.20
2007,08,13,08,33,153.00
2007,08,13,08,34,158.00
2007,08,13,08,35,162.50
2007,08,13,08,36,177.00
2007,08,13,08,37,179.60
2007,08,13,08,38,173.30
2007,08,13,08,39,163.30
2007,08,13,08,40,160.00
2007,08,13,08,41,157.20
2007,08,13,08,42,155.10
2007,08,13,08,43,162.50
2007,08,13,08,44,174.00
2007,08,13,08,45,181.00
2007,08,13,08,46,200.40
2007,08,13,08,47,206.80
2007,08,13,08,48,217.50
2007,08,13,08,49,236.20
2007,08,13,08,50,245.80
2007,08,13,08,51,227.20
2007,08,13,08,52,219.50
2007,08,13,08,53,208.80
2007,08,13,08,54,200.40
2007,08,13,08,55,267.00
2007,08,13,08,56,241.00
2007,08,13,08,57,237.00
2007,08,13,08,58,270.20
2007,08,13,08,59,390.20
2007,08,13,09,00,366.40
2007,08,13,09,01,359.00
2007,08,13,09,02,330.20
2007,08,13,09,03,283.00
2007,08,13,09,04,283.40
2007,08,13,09,05,284.30
2007,08,13,09,06,278.00
2007,08,13,09,07,278.00
2007,08,13,09,08,266.80
2007,08,13,09,09,262.50
2007,08,13,09,10,252.50
2007,08,13,09,11,243.40
2007,08,13,09,12,229.70
2007,08,13,09,13,245.90
2007,08,13,09,14,258.70
2007,08,13,09,15,256.60
2007,08,13,09,16,223.40
2007,08,13,09,17,225.00
2007,08,13,09,18,216.00
2007,08,13,09,19,248.80
2007,08,13,09,20,230.40
2007,08,13,09,21,222.80
2007,08,13,09,22,236.10
2007,08,13,09,23,235.10
2007,08,13,09,24,233.60
2007,08,13,09,25,236.00
2007,08,13,09,26,234.30
2007,08,13,09,27,232.10
2007,08,13,09,28,274.00
2007,08,13,09,29,255.00
2007,08,13,09,30,315.00
2007,08,13,09,31,313.20
2007,08,13,09,32,277.30
2007,08,13,09,33,268.40
2007,08,13,09,34,257.00
2007,08,13,09,35,266.00
2007,08,13,09,36,283.70
2007,08,13,09,37,337.60
2007,08,13,09,38,284.90
2007,08,13,09,39,246.00
2007,08,13,09,40,206.00
2007,08,13,09,41,202.00
2007,08,13,09,42,202.00
2007,08,13,09,43,196.40
2007,08,13,09,44,184.60
2007,08,13,09,45,190.00
2007,08,13,09,46,190.00
2007,08,13,09,47,190.00
2007,08,13,09,48,143.60
2007,08,13,09,49,135.50
2007,08,13,09,50,175.90
2007,08,13,09,51,216.00
2007,08,13,09,52,235.60
2007,08,13,09,53,629.00
2007,08,13,09,54,652.20
2007,08,13,09,55,709.20
2007,08,13,09,56,707.00
2007,08,13,09,57,402.20
2007,08,13,09,58,199.00
2007,08,13,09,59,199.00
2007,08,13,10,00,199.00
2007,08,13,10,01,199.00
2007,08,13,10,02,494.00
2007,08,13,10,03,548.00
2007,08,13,10,04,548.00
2007,08,13,10,05,474.90
2007,08,13,10,06,282.40
2007,08,13,10,07,305.70
2007,08,13,10,08,309.00
2007,08,13,10,09,309.00
2007,08,13,10,10,309.00
2007,08,13,10,11,274.50
2007,08,13,10,12,272.00
2007,08,13,10,13,567.70
2007,08,13,10,14,610.00
2007,08,13,10,15,542.40
2007,08,13,10,16,272.00
2007,08,13,10,17,272.00
2007,08,13,10,18,272.00
2007,08,13,10,19,272.00
2007,08,13,10,20,272.00
2007,08,13,10,21,272.00
2007,08,13,10,22,232.80
2007,08,13,10,23,262.00
2007,08,13,10,24,329.00
2007,08,13,10,25,400.50
2007,08,13,10,26,336.20
2007,08,13,10,27,327.00
2007,08,13,10,28,349.30
2007,08,13,10,29,318.80
2007,08,13,10,30,276.40
2007,08,13,10,31,276.40
2007,08,13,10,32,286.40
2007,08,13,10,33,292.00
2007,08,13,10,34,464.00
2007,08,13,10,35,371.00
2007,08,13,10,36,317.20
2007,08,13,10,37,304.20
2007,08,13,10,38,297.00
2007,08,13,10,39,297.00
2007,08,13,10,40,325.90
2007,08,13,10,41,359.00
2007,08,13,10,42,485.50
2007,08,13,10,43,589.00
2007,08,13,10,44,589.00
2007,08,13,10,45,589.00
2007,08,13,10,46,589.00
2007,08,13,10,47,753.60
2007,08,13,10,48,717.00
2007,08,13,10,49,717.00
2007,08,13,10,50,743.60
2007,08,13,10,51,795.90
2007,08,13,10,52,813.40
2007,08,13,10,53,819.00
2007,08,13,10,54,300.70
2007,08,13,10,55,221.00
2007,08,13,10,56,221.00
2007,08,13,10,57,221.00
2007,08,13,10,58,786.20
2007,08,13,10,59,784.90
2007,08,13,11,00,761.50
2007,08,13,11,01,776.80
2007,08,13,11,02,782.00
2007,08,13,11,03,762.60
2007,08,13,11,04,751.00
2007,08,13,11,05,777.40
2007,08,13,11,06,784.00
2007,08,13,11,07,580.60
2007,08,13,11,08,517.00
2007,08,13,11,09,818.30
2007,08,13,11,10,800.10
2007,08,13,11,11,760.10
2007,08,13,11,12,801.00
2007,08,13,11,13,781.40
2007,08,13,11,14,799.60
2007,08,13,11,15,810.00
2007,08,13,11,16,807.60
2007,08,13,11,17,798.60
2007,08,13,11,18,794.20
2007,08,13,11,19,780.00
2007,08,13,11,20,773.50
2007,08,13,11,21,781.20
2007,08,13,11,22,786.00
2007,08,13,11,23,786.00
2007,08,13,11,24,786.00
2007,08,13,11,25,786.00
2007,08,13,11,26,786.00
2007,08,13,11,27,786.00
2007,08,13,11,28,786.00
2007,08,13,11,29,786.00
2007,08,13,11,30,786.00
2007,08,13,11,31,786.00
2007,08,13,11,32,199.00
2007,08,13,11,33,199.00
2007,08,13,11,34,358.80
2007,08,13,11,35,838.00
2007,08,13,11,36,838.00
2007,08,13,11,37,330.50
2007,08,13,11,38,150.00
2007,08,13,11,39,157.30
2007,08,13,11,40,162.00
2007,08,13,11,41,162.00
2007,08,13,11,42,854.90
2007,08,13,11,43,868.90
2007,08,13,11,44,879.90
2007,08,13,11,45,890.90
2007,08,13,11,46,898.00
2007,08,13,11,47,898.00
2007,08,13,11,48,898.00
2007,08,13,11,49,898.00
2007,08,13,11,50,888.70
2007,08,13,11,51,814.00
2007,08,13,11,52,814.00
2007,08,13,11,53,814.00
2007,08,13,11,54,692.70
2007,08,13,11,55,161.20
2007,08,13,11,56,144.00
2007,08,13,11,57,144.00
2007,08,13,11,58,144.00
2007,08,13,11,59,144.00
2007,08,13,12,00,144.00
2007,08,13,12,01,144.00
2007,08,13,12,02,144.00
2007,08,13,12,03,144.00
2007,08,13,12,04,163.90
2007,08,13,12,05,162.00
2007,08,13,12,06,162.00
2007,08,13,12,07,228.00
2007,08,13,12,08,327.00
2007,08,13,12,09,218.40
2007,08,13,12,10,142.30
2007,08,13,12,11,141.00
2007,08,13,12,12,141.00
2007,08,13,12,13,739.10
2007,08,13,12,14,911.00
2007,08,13,12,15,937.00
2007,08,13,12,16,937.00
2007,08,13,12,17,938.90
2007,08,13,12,18,947.00
2007,08,13,12,19,957.20
2007,08,13,12,20,965.00
2007,08,13,12,21,540.70
2007,08,13,12,22,155.00
2007,08,13,12,23,155.00
2007,08,13,12,24,749.40
2007,08,13,12,25,940.00
2007,08,13,12,26,889.70
2007,08,13,12,27,186.00
2007,08,13,12,28,186.00
2007,08,13,12,29,186.00
2007,08,13,12,30,186.00
2007,08,13,12,31,473.60
2007,08,13,12,32,916.00
2007,08,13,12,33,926.00
2007,08,13,12,34,926.00
2007,08,13,12,35,153.00
2007,08,13,12,36,153.00
2007,08,13,12,37,153.00
2007,08,13,12,38,153.00
2007,08,13,12,39,153.00
2007,08,13,12,40,181.80
2007,08,13,12,41,225.00
2007,08,13,12,42,663.60
2007,08,13,12,43,962.60
2007,08,13,12,44,965.00
2007,08,13,12,45,965.00
2007,08,13,12,46,965.00
2007,08,13,12,47,901.60
2007,08,13,12,48,911.10
2007,08,13,12,49,913.80
2007,08,13,12,50,923.20
2007,08,13,12,51,932.00
2007,08,13,12,52,925.50
2007,08,13,12,53,900.20
2007,08,13,12,54,884.20
2007,08,13,12,55,878.00
2007,08,13,12,56,875.10
2007,08,13,12,57,863.00
2007,08,13,12,58,858.00
2007,08,13,12,59,868.30
2007,08,13,13,00,873.20
2007,08,13,13,01,881.60
2007,08,13,13,02,883.40
2007,08,13,13,03,877.30
2007,08,13,13,04,869.00
2007,08,13,13,05,869.00
2007,08,13,13,06,866.90
2007,08,13,13,07,869.70
2007,08,13,13,08,867.00
2007,08,13,13,09,867.00
2007,08,13,13,10,866.90
2007,08,13,13,11,865.30
2007,08,13,13,12,866.50
2007,08,13,13,13,865.00
2007,08,13,13,14,865.80
2007,08,13,13,15,867.60
2007,08,13,13,16,867.30
2007,08,13,13,17,867.00
2007,08,13,13,18,867.00
2007,08,13,13,19,867.00
2007,08,13,13,20,868.00
2007,08,13,13,21,868.00
2007,08,13,13,22,867.50
2007,08,13,13,23,871.50
2007,08,13,13,24,869.20
2007,08,13,13,25,867.50
2007,08,13,13,26,869.20
2007,08,13,13,27,868.50
2007,08,13,13,28,867.20
2007,08,13,13,29,867.90
2007,08,13,13,30,872.00
2007,08,13,13,31,868.00
2007,08,13,13,32,869.90
2007,08,13,13,33,867.10
2007,08,13,13,34,868.00
2007,08,13,13,35,866.20
2007,08,13,13,36,864.80
2007,08,13,13,37,867.50
2007,08,13,13,38,868.50
2007,08,13,13,39,868.80
2007,08,13,13,40,868.00
2007,08,13,13,41,868.00
2007,08,13,13,42,865.40
2007,08,13,13,43,867.90
2007,08,13,13,44,867.30
2007,08,13,13,45,869.20
2007,08,13,13,46,866.50
2007,08,13,13,47,866.10
2007,08,13,13,48,865.00
2007,08,13,13,49,864.40
2007,08,13,13,50,865.00
2007,08,13,13,51,865.00
2007,08,13,13,52,865.00
2007,08,13,13,53,865.00
2007,08,13,13,54,861.00
2007,08,13,13,55,861.50
2007,08,13,13,56,863.90
2007,08,13,13,57,861.00
2007,08,13,13,58,861.90
2007,08,13,13,59,861.90
2007,08,13,14,00,862.40
2007,08,13,14,01,863.00
2007,08,13,14,02,860.20
2007,08,13,14,03,857.00
2007,08,13,14,04,860.00
2007,08,13,14,05,857.90
2007,08,13,14,06,856.30
2007,08,13,14,07,858.00
2007,08,13,14,08,858.00
2007,08,13,14,09,856.60
2007,08,13,14,10,854.00
2007,08,13,14,11,854.00
2007,08,13,14,12,854.00
2007,08,13,14,13,853.10
2007,08,13,14,14,853.00
2007,08,13,14,15,853.00
2007,08,13,14,16,851.00
2007,08,13,14,17,851.00
2007,08,13,14,18,851.00
2007,08,13,14,19,851.00
2007,08,13,14,20,850.20
2007,08,13,14,21,847.80
2007,08,13,14,22,844.80
2007,08,13,14,23,844.00
2007,08,13,14,24,842.60
2007,08,13,14,25,840.50
2007,08,13,14,26,841.70
2007,08,13,14,27,840.00
2007,08,13,14,28,839.70
2007,08,13,14,29,837.30
2007,08,13,14,30,838.00
2007,08,13,14,31,836.40
2007,08,13,14,32,835.00
2007,08,13,14,33,832.10
2007,08,13,14,34,833.40
2007,08,13,14,35,833.60
2007,08,13,14,36,831.00
2007,08,13,14,37,830.00
2007,08,13,14,38,829.90
2007,08,13,14,39,827.70
2007,08,13,14,40,826.00
2007,08,13,14,41,825.20
2007,08,13,14,42,823.50
2007,08,13,14,43,823.00
2007,08,13,14,44,823.00
2007,08,13,14,45,821.40
2007,08,13,14,46,821.00
2007,08,13,14,47,817.00
2007,08,13,14,48,816.00
2007,08,13,14,49,818.70
2007,08,13,14,50,814.00
2007,08,13,14,51,814.00
2007,08,13,14,52,813.20
2007,08,13,14,53,811.00
2007,08,13,14,54,811.20
2007,08,13,14,55,812.00
2007,08,13,14,56,806.40
2007,08,13,14,57,807.80
2007,08,13,14,58,807.00
2007,08,13,14,59,808.70
2007,08,13,15,00,805.00
2007,08,13,15,01,802.10
2007,08,13,15,02,802.70
2007,08,13,15,03,801.20
2007,08,13,15,04,800.00
2007,08,13,15,05,800.00
2007,08,13,15,06,800.00
2007,08,13,15,07,800.00
2007,08,13,15,08,800.00
2007,08,13,15,09,800.00
2007,08,13,15,10,800.00
2007,08,13,15,11,800.00
2007,08,13,15,12,787.90
2007,08,13,15,13,778.40
2007,08,13,15,14,805.30
2007,08,13,15,15,799.20
2007,08,13,15,16,796.00
2007,08,13,15,17,795.30
2007,08,13,15,18,793.40
2007,08,13,15,19,788.30
2007,08,13,15,20,793.00
2007,08,13,15,21,751.00
2007,08,13,15,22,768.00
2007,08,13,15,23,795.90
2007,08,13,15,24,793.90
2007,08,13,15,25,792.70
2007,08,13,15,26,798.80
2007,08,13,15,27,792.40
2007,08,13,15,28,786.00
2007,08,13,15,29,786.00
2007,08,13,15,30,792.50
2007,08,13,15,31,796.80
2007,08,13,15,32,798.00
2007,08,13,15,33,802.20
2007,08,13,15,34,804.60
2007,08,13,15,35,804.10
2007,08,13,15,36,789.40
2007,08,13,15,37,741.00
2007,08,13,15,38,707.40
2007,08,13,15,39,679.00
2007,08,13,15,40,763.00
2007,08,13,15,41,803.90
2007,08,13,15,42,837.00
2007,08,13,15,43,786.00
2007,08,13,15,44,786.00
2007,08,13,15,45,716.80
2007,08,13,15,46,269.90
2007,08,13,15,47,272.40
2007,08,13,15,48,285.00
2007,08,13,15,49,309.00
2007,08,13,15,50,516.50
2007,08,13,15,51,585.60
2007,08,13,15,52,584.00
2007,08,13,15,53,701.00
2007,08,13,15,54,718.80
2007,08,13,15,55,770.00
2007,08,13,15,56,770.00
2007,08,13,15,57,768.10
2007,08,13,15,58,759.40
2007,08,13,15,59,754.00
2007,08,13,16,00,745.60
2007,08,13,16,01,736.70
2007,08,13,16,02,731.40
2007,08,13,16,03,727.00
2007,08,13,16,04,726.00
2007,08,13,16,05,726.00
2007,08,13,16,06,727.00
2007,08,13,16,07,741.00
2007,08,13,16,08,734.10
2007,08,13,16,09,723.20
2007,08,13,16,10,712.00
2007,08,13,16,11,700.40
2007,08,13,16,12,691.30
2007,08,13,16,13,687.40
2007,08,13,16,14,686.10
2007,08,13,16,15,684.00
2007,08,13,16,16,684.00
2007,08,13,16,17,684.10
2007,08,13,16,18,678.70
2007,08,13,16,19,639.80
2007,08,13,16,20,675.00
2007,08,13,16,21,675.00
2007,08,13,16,22,673.80
2007,08,13,16,23,668.30
2007,08,13,16,24,668.30
2007,08,13,16,25,664.40
2007,08,13,16,26,659.00
2007,08,13,16,27,657.00
2007,08,13,16,28,649.80
2007,08,13,16,29,646.50
2007,08,13,16,30,642.70
2007,08,13,16,31,643.00
2007,08,13,16,32,645.00
2007,08,13,16,33,572.40
2007,08,13,16,34,524.00
2007,08,13,16,35,601.60
2007,08,13,16,36,627.50
2007,08,13,16,37,624.00
2007,08,13,16,38,617.00
2007,08,13,16,39,612.80
2007,08,13,16,40,609.50
2007,08,13,16,41,606.00
2007,08,13,16,42,604.00
2007,08,13,16,43,601.90
2007,08,13,16,44,599.90
2007,08,13,16,45,598.70
2007,08,13,16,46,595.00
2007,08,13,16,47,594.00
2007,08,13,16,48,594.00
2007,08,13,16,49,594.00
2007,08,13,16,50,589.10
2007,08,13,16,51,591.00
2007,08,13,16,52,591.00
2007,08,13,16,53,592.20
2007,08,13,16,54,549.70
2007,08,13,16,55,514.00
2007,08,13,16,56,534.70
2007,08,13,16,57,569.10
2007,08,13,16,58,552.50
2007,08,13,16,59,497.00
2007,08,13,17,00,543.00
2007,08,13,17,01,543.00
2007,08,13,17,02,543.00
2007,08,13,17,03,541.00
2007,08,13,17,04,536.00
2007,08,13,17,05,536.00
2007,08,13,17,06,536.00
2007,08,13,17,07,536.00
2007,08,13,17,08,484.00
2007,08,13,17,09,471.00
2007,08,13,17,10,300.00